Champaign, IL

5:36 AM CST on December 14, 2019 (GMT -0600)
Univ Of Illinois-Willard

Weather History for KCMI - November, 2019

Change the Weather History Date:

Sunday, November 17, 2019

  Actual Average Record
Temperature  
Mean Temperature 35 °F 41 °F  
Max Temperature 46 °F 50 °F 75 °F (2016)
Min Temperature 24 °F 32 °F 12 °F (2014)
Degree Days  
Heating Degree Days 30 24  
Month to date heating degree days 547 344  
Since 1 July heating degree days 918 805  
Cooling Degree Days 0 0  
Month to date cooling degree days 0 0  
Year to date cooling degree days 1168 944  
Moisture  
Dew Point 32 °F    
Average Humidity 85    
Maximum Humidity 100    
Minimum Humidity 70    
Precipitation  
Precipitation 0.07 in 0.12 in 1.05 in (2015)
Month to date precipitation 0.07 1.98  
Year to date precipitation 32.06 35.68  
Sea Level Pressure  
Sea Level Pressure 29.99 in    
Wind  
Wind Speed 7 mph (South)    
Max Wind Speed 12 mph    
Max Gust Speed 15 mph    
Visibility 5 miles    
Events Rain    
T = Trace of Precipitation, MM = Missing Value Source: NWS Daily Summary

Daily Weather History Graph

Daily Weather History Graph

Search for Another Location

Airport or City:

Astronomy

Nov. 17, 2019 Rise Set
Actual Time 6:40 AM CST 4:35 PM CST
Civil Twilight 6:11 AM CST 5:04 PM CST
Nautical Twilight 5:38 AM CST 5:37 PM CST
Astronomical Twilight 5:06 AM CST 6:09 PM CST
Moon 9:11 PM CST (11/17) 11:25 AM CST (11/17)
Length of Visible Light 10h 53m
Length of Day
9h 54m
Waning Gibbous, 73% of the Moon is Illuminated
Nov 17
Waning Gibbous
Nov 19
Last Quarter
Nov 26
New
Dec 4
First Quarter
Dec 11
Full

Hourly Weather History & Observations

Time (CST) Temp. Windchill Dew Point Humidity Pressure Visibility Wind Dir Wind Speed Gust Speed Precip Events Conditions
12:53 AM 27.0 °F 19.5 °F 25.0 °F 92% 30.19 in 10.0 mi East 6.9 mph - N/A   Clear
1:53 AM 26.1 °F 19.4 °F 25.0 °F 96% 30.19 in 9.0 mi East 5.8 mph - N/A   Clear
2:53 AM 26.1 °F 18.4 °F 24.1 °F 92% 30.16 in 8.0 mi East 6.9 mph - N/A   Clear
4:53 AM 25.0 °F 18.1 °F 24.1 °F 96% 30.14 in 6.0 mi East 5.8 mph - N/A   Clear
5:53 AM 25.0 °F 20.7 °F 24.1 °F 96% 30.13 in 6.0 mi East 3.5 mph - N/A   Clear
6:53 AM 28.0 °F 21.7 °F 26.1 °F 92% 30.12 in 4.0 mi East 5.8 mph - N/A   Clear
7:53 AM 30.0 °F 24.1 °F 28.0 °F 92% 30.10 in 5.0 mi ESE 5.8 mph - N/A   Clear
8:53 AM 32.0 °F 26.4 °F 30.0 °F 92% 30.09 in 5.0 mi SSE 5.8 mph - N/A   Clear
9:53 AM 34.0 °F 28.0 °F 30.9 °F 89% 30.06 in 6.0 mi SSE 6.9 mph - N/A   Partly Cloudy
10:53 AM 37.0 °F 31.0 °F 32.0 °F 82% 30.05 in 6.0 mi South 8.1 mph - N/A   Haze
11:53 AM 39.0 °F 34.0 °F 33.1 °F 79% 30.01 in 6.0 mi South 6.9 mph - N/A   Haze
12:53 PM 41.0 °F 35.8 °F 34.0 °F 76% 29.96 in 5.0 mi SSE 8.1 mph - N/A   Haze
1:53 PM 43.0 °F 38.8 °F 35.1 °F 74% 29.96 in 6.0 mi SSW 6.9 mph - N/A   Haze
2:53 PM 45.0 °F 40.6 °F 35.1 °F 68% 29.94 in 6.0 mi South 8.1 mph - N/A   Haze
3:53 PM 42.1 °F 37.1 °F 34.0 °F 73% 29.91 in 6.0 mi SSE 8.1 mph - N/A   Haze
4:53 PM 41.0 °F 35.2 °F 35.1 °F 79% 29.91 in 7.0 mi SE 9.2 mph - N/A   Clear
5:53 PM 37.9 °F 35.5 °F 34.0 °F 86% 29.92 in 6.0 mi SSW 3.5 mph - N/A   Clear
6:53 PM 37.9 °F 34.4 °F 35.1 °F 89% 29.91 in 6.0 mi SSW 4.6 mph - N/A   Mostly Cloudy
7:53 PM 37.9 °F 33.5 °F 36.0 °F 93% 29.91 in 5.0 mi SSW 5.8 mph - 0.00 in Rain Light Rain
8:53 PM 37.9 °F 32.7 °F 37.0 °F 97% 29.89 in 3.0 mi SSW 6.9 mph - 0.04 in Rain Light Rain
9:53 PM 37.9 °F 32.7 °F 37.0 °F 97% 29.88 in 3.0 mi WSW 6.9 mph - 0.02 in Rain Light Rain
10:00 PM 37.9 °F 32.7 °F 37.0 °F 97% 29.86 in 2.5 mi SW 6.9 mph - 0.00 in Rain Light Rain
10:53 PM 37.9 °F 32.1 °F 37.9 °F 100% 29.86 in 2.0 mi WSW 8.1 mph - 0.01 in Rain Light Rain
11:09 PM 39.0 °F 33.4 °F 37.9 °F 96% 29.84 in 1.8 mi WSW 8.1 mph - 0.00 in Rain Light Rain
11:39 PM 39.0 °F 33.4 °F 39.0 °F 100% 29.83 in 1.5 mi West 8.1 mph - 0.00 in   Overcast
11:53 PM 39.0 °F 34.0 °F 37.9 °F 96% 29.84 in 1.8 mi West 6.9 mph - 0.00 in   Overcast